[[{"header":{"parameterUnit":"m.s-1","parameterCategory":1,"la1":30.2991,"la2":30.254,"lo1":-89.0895,"lo2":-89.0444,"dy":0.0017,"dx":0.0017,"nx":28,"ny":28,"refTime":"2024-08-23T09:00:00:Z","depth":0,"parameterNumber":2,"parameterNumberName":"U-component_of_WINDS"},"data":[0,0,0,0,0,0,0,0,0,0,0,0,0,0,0,0,0,0,0,0,0,0,0,0,0,0,0,0,0,0,0,0,0,0,0,0,0,0,0,0,0,0,0,0,0,0,0,0,0,0,0,0,0,0,0,0,0,0,-6.9107,-6.9107,0,-6.9097,-6.9097,-6.9097,-6.8948,-6.8944,-6.8941,-6.8937,-6.8928,-6.8932,-6.8935,0,0,0,0,0,0,0,0,0,0,0,0,0,-6.8999,-6.9002,-6.9107,-6.9107,-6.9107,-6.9097,-6.9097,-6.9097,-6.8949,-6.8944,-6.894,-6.8935,-6.8927,-6.8931,-6.8935,0,0,0,0,0,0,0,0,0,0,0,0,0,-6.9023,-6.9003,-6.9107,-6.9032,-6.9025,-6.9097,-6.9097,-6.9097,-6.895,-6.8944,-6.8939,-6.8933,-6.8926,-6.8931,-6.8936,-6.908,0,0,-6.8951,-6.8953,0,0,0,0,0,0,0,0,-6.9022,-6.9027,-6.9043,-6.9037,-6.9029,-6.9018,-6.9056,-6.9091,-6.8951,-6.8978,-6.8937,-6.893,-6.8963,-6.8964,-6.8975,-6.9079,-6.9079,-6.8951,-6.8954,-6.8956,-6.8958,0,0,0,0,0,0,0,-6.9021,-6.9027,-6.9103,-6.9043,-6.9035,-6.8999,-6.8996,-6.9062,-6.9003,-6.8976,-6.8965,-6.8966,-6.8958,-6.8971,-6.8974,-6.9079,-6.8951,-6.8955,-6.8958,-6.896,-6.9303,-6.9309,0,0,0,0,0,0,-6.9029,-6.9027,-6.9103,-6.9103,-6.9012,-6.9006,-6.9002,-6.9028,-6.9001,-6.8992,-6.897,-6.8959,-6.8965,-6.8968,-6.8973,-6.9142,-6.8956,-6.8961,-6.8964,-6.9297,-6.9305,-6.9311,0,0,0,0,0,0,-6.9027,-6.9037,-6.9104,-6.9062,-6.9067,-6.9013,-6.9043,-6.903,-6.9043,-6.8998,-6.8986,-6.8994,-6.8961,-6.8966,-6.9055,-6.9139,-6.8963,-6.8968,-6.929,-6.93,-6.9308,-6.948,0,0,0,0,0,0,-6.9025,-6.9038,-6.9091,-6.9064,-6.907,-6.9186,-6.9048,-6.9034,-6.9051,-6.9036,-6.9017,-6.9008,-6.8957,-6.9048,-6.906,-6.9143,-6.8971,-6.9282,-6.9294,-6.9305,-6.9466,-6.9493,-6.9517,0,0,0,0,0,-6.9022,-6.914,-6.9095,-6.9105,-6.9136,-6.9191,-6.9194,-6.9132,-6.9059,-6.9113,-6.9084,-6.9009,-6.9128,-6.9059,-6.907,-6.9156,-6.9277,-6.9291,-6.9304,-6.9455,-6.9488,-6.9516,0,0,0,0,0,0,-6.9178,-6.9135,-6.9084,-6.9197,-6.9199,-6.9165,-6.9231,-6.9169,-6.9192,-6.9177,-6.9099,-6.9096,-6.9197,-6.9185,-6.9109,-6.9295,-6.9189,-6.9206,-6.93,-6.9331,-6.9356,-6.9357,-6.8976,0,0,0,0,0,-6.9226,-6.9273,-6.9233,-6.9336,-6.934,-6.9286,-6.9307,-6.926,-6.9258,-6.9258,-6.9236,-6.9238,-6.9276,-6.9303,-6.9335,-6.9463,-6.9458,-6.9528,-6.9554,-6.9575,-6.9591,-6.966,-6.9691,-6.9357,-6.9357,-6.9356,0,0,-6.9324,-6.9307,-6.9341,-6.9367,-6.9363,-6.9415,-6.9288,-6.9347,-6.9385,-6.9267,-6.935,-6.9335,-6.9332,-6.9442,-6.9489,-6.9435,-6.9682,-6.9593,-6.961,-6.9614,-6.9678,-6.9709,-6.9738,-6.9366,-6.9364,-6.9363,0,0,-6.9531,-6.9522,-6.9608,-6.9607,-6.9602,-6.9566,-6.9587,-6.9564,-6.9549,-6.9631,-6.9544,-6.9588,-6.9655,-6.9657,-6.9667,-6.9878,-6.981,-6.989,-7.0023,-7.0092,-7.0118,-7.0141,-7.0218,-7.0247,-6.9906,-6.9906,-6.9907,0,-6.9655,-6.9729,-6.966,-6.9726,-6.9741,-6.9637,-6.9725,-6.9727,-6.9733,-6.9746,-6.9685,-6.9768,-6.9759,-6.9869,-6.9921,-6.9932,-6.9954,-6.9892,-7.012,-7.0142,-7.0163,-7.0235,-7.0264,-6.9916,-6.9915,-6.9914,-6.9913,0,-6.9882,-6.9935,-7.0005,-7.0015,-7.0037,-7.0114,-7.0058,-7.0089,-7.004,-7.0011,-7.0097,-7.0082,-7.0111,-7.0133,-7.0085,-7.0238,-7.0205,-7.0133,-7.0025,-7.0206,-7.0273,-7.03,-6.993,-6.9927,-6.9924,-6.9921,0,0,-7.0186,-7.0158,-7.0185,-7.0189,-7.0177,-7.0217,-7.029,-7.0318,-7.0347,-7.0356,-7.0416,-7.0476,-7.041,-7.0422,-7.0373,-7.0434,-7.0604,-7.0354,-7.0353,-7.0403,-7.0773,-7.0828,-7.0861,-7.0559,-7.0564,-7.0568,-7.0774,0,-7.0387,-7.0509,-7.0451,-7.058,-7.063,-7.0533,-7.0596,-7.0597,-7.0572,-7.0611,-7.0583,-7.0627,-7.0536,-7.0543,-7.0598,-7.0572,-7.0677,-7.0556,-7.0615,-7.0618,-7.062,-7.0896,-7.0954,-7.1149,-7.08,-7.0804,-7.0807,0,-7.0638,-7.0658,-7.0793,-7.0774,-7.0792,-7.085,-7.0873,-7.091,-7.091,-7.0887,-7.0902,-7.084,-7.0911,-7.0804,-7.0902,-7.0821,-7.0842,-7.0833,-7.0839,-7.0843,-7.0725,-7.0909,-7.121,-7.124,-7.0847,-7.0844,-7.0841,0,-7.0849,-7.0909,-7.0998,-7.1004,-7.0984,-7.1027,-7.1021,-7.1014,-7.1036,-7.1055,-7.1069,-7.1097,-7.1113,-7.1136,-7.1084,-7.1011,-7.1191,-7.1078,-7.1176,-7.1178,-7.1219,-7.1217,-7.1529,-7.1231,-7.123,-7.123,-7.1229,0,-7.108,-7.1167,-7.1093,-7.1148,-7.1243,-7.1175,-7.1271,-7.1254,-7.125,-7.13,-7.1218,-7.1268,-7.1195,-7.1239,-7.1199,-7.1287,-7.1295,-7.128,-7.1269,-7.1288,-7.129,-7.1301,-7.1287,-7.1237,-7.1236,-7.1234,-7.1233,0,-7.1331,-7.1285,-7.1376,-7.135,-7.1346,-7.1417,-7.1395,-7.1446,-7.1415,-7.1481,-7.1493,-7.1446,-7.1493,-7.1443,-7.1486,-7.1459,-7.158,-7.1547,-7.158,-7.1572,-7.1673,-7.1665,-7.2003,-7.2045,-7.1719,-7.1722,-7.1725,0,-7.1483,-7.1547,-7.1529,-7.1557,-7.1556,-7.1602,-7.1624,-7.156,-7.1586,-7.1592,-7.1642,-7.1682,-7.171,-7.179,-7.176,-7.1793,-7.1762,-7.1879,-7.1767,-7.1785,-7.1766,-7.1764,-7.1771,-7.1902,-7.1906,-7.1909,-7.1912,0,-7.1757,-7.1731,-7.1765,-7.1793,-7.1822,-7.184,-7.1852,-7.188,-7.1814,-7.1848,-7.1895,-7.1918,-7.1962,-7.2003,-7.2028,-7.2022,-7.1958,-7.1947,-7.1972,-7.1993,-7.201,-7.2005,-7.1644,-7.194,-7.1937,-7.1935,-7.1934,-7.1932,-7.1963,-7.2017,-7.2014,-7.2055,-7.2058,-7.2072,-7.2119,-7.2095,-7.2133,-7.2164,-7.2124,-7.2183,-7.2182,-7.2209,-7.2211,-7.2257,-7.2207,-7.2243,-7.2252,-7.2262,-7.2278,-7.2003,-7.2261,-7.226,-7.2259,-7.2259,-7.2258,0,-7.2235,-7.2228,-7.2267,-7.2287,-7.2321,-7.2256,-7.2267,-7.23,-7.2352,-7.2357,-7.2387,-7.2442,-7.2483,-7.2457,-7.2491,-7.2533,-7.2505,-7.2545,-7.2542,-7.2542,-7.2319,-7.2295,-7.2568,-7.2567,-7.2567,-7.2567,-7.2567,-7.2567,-7.238,-7.2468,-7.2443,-7.2533,-7.2524,-7.2581,-7.2594,-7.2607,-7.261,-7.2676,-7.2709,-7.2692,-7.2685,-7.2719,-7.2753,-7.2745,-7.2762,-7.2814,-7.2795,-7.2588,-7.2557,-7.2528,-7.2505,-7.2818,-7.2818,-7.3014,-7.3016,-7.3017]},{"header":{"parameterUnit":"m.s-1","parameterCategory":1,"la1":30.2991,"la2":30.254,"lo1":-89.0895,"lo2":-89.0444,"dy":0.0017,"dx":0.0017,"nx":28,"ny":28,"refTime":"2024-08-23T09:00:00:Z","depth":0,"parameterNumber":3,"parameterNumberName":"V-component_of_WINDS"},"data":[0,0,0,0,0,0,0,0,0,0,0,0,0,0,0,0,0,0,0,0,0,0,0,0,0,0,0,0,0,0,0,0,0,0,0,0,0,0,0,0,0,0,0,0,0,0,0,0,0,0,0,0,0,0,0,0,0,0,-1.2587,-1.2587,0,-1.2654,-1.2655,-1.2656,-1.2635,-1.2634,-1.2632,-1.2631,-1.2702,-1.2705,-1.2708,0,0,0,0,0,0,0,0,0,0,0,0,0,-1.2441,-1.2444,-1.2587,-1.2588,-1.2588,-1.2654,-1.2655,-1.2656,-1.2635,-1.2634,-1.2632,-1.263,-1.2701,-1.2705,-1.2709,0,0,0,0,0,0,0,0,0,0,0,0,0,-1.2506,-1.2445,-1.2587,-1.2586,-1.2587,-1.2654,-1.2655,-1.2656,-1.2636,-1.2633,-1.2631,-1.2629,-1.27,-1.2704,-1.2709,-1.2782,0,0,-1.2724,-1.2726,0,0,0,0,0,0,0,0,-1.2502,-1.2511,-1.2585,-1.2586,-1.2587,-1.2634,-1.263,-1.2698,-1.2636,-1.2617,-1.2631,-1.2628,-1.2681,-1.2687,-1.2705,-1.2785,-1.2788,-1.2724,-1.2727,-1.2729,-1.2731,0,0,0,0,0,0,0,-1.2498,-1.2508,-1.2613,-1.2586,-1.2587,-1.2583,-1.259,-1.2643,-1.266,-1.2619,-1.2617,-1.2625,-1.2681,-1.27,-1.2706,-1.2789,-1.2724,-1.2728,-1.2731,-1.2733,-1.2933,-1.2935,0,0,0,0,0,0,-1.2493,-1.2505,-1.2611,-1.2615,-1.2538,-1.2587,-1.2595,-1.2621,-1.266,-1.2664,-1.2627,-1.2624,-1.2693,-1.2701,-1.2709,-1.2797,-1.2729,-1.2734,-1.2737,-1.293,-1.2933,-1.2936,0,0,0,0,0,0,-1.249,-1.2502,-1.2609,-1.256,-1.2573,-1.2592,-1.2622,-1.2624,-1.2642,-1.2666,-1.2669,-1.2643,-1.2692,-1.2702,-1.2764,-1.2799,-1.2736,-1.274,-1.2928,-1.2931,-1.2935,-1.2974,0,0,0,0,0,0,-1.2486,-1.2501,-1.2529,-1.2561,-1.2576,-1.2662,-1.2624,-1.2626,-1.2651,-1.2647,-1.2682,-1.2686,-1.2691,-1.2757,-1.2769,-1.2805,-1.2744,-1.2925,-1.2929,-1.2933,-1.297,-1.2979,-1.2986,0,0,0,0,0,-1.248,-1.2538,-1.2531,-1.2544,-1.261,-1.2664,-1.2673,-1.2677,-1.2653,-1.2682,-1.2697,-1.2685,-1.2793,-1.2763,-1.2776,-1.2815,-1.2922,-1.2928,-1.2933,-1.2966,-1.2977,-1.2986,0,0,0,0,0,0,-1.2511,-1.2542,-1.2534,-1.2603,-1.2631,-1.2661,-1.2696,-1.2688,-1.2724,-1.2719,-1.2723,-1.2731,-1.2795,-1.281,-1.2777,-1.2887,-1.2854,-1.2863,-1.2875,-1.2885,-1.2893,-1.2889,-1.2748,0,0,0,0,0,-1.2525,-1.2566,-1.2591,-1.265,-1.2664,-1.2678,-1.2701,-1.2702,-1.2731,-1.2743,-1.2763,-1.2792,-1.2833,-1.2859,-1.2898,-1.2971,-1.2979,-1.3004,-1.3012,-1.3019,-1.3027,-1.3067,-1.3079,-1.2954,-1.2954,-1.2953,0,0,-1.2556,-1.2578,-1.2604,-1.2656,-1.2678,-1.2721,-1.2688,-1.2734,-1.2766,-1.275,-1.281,-1.2825,-1.2858,-1.2926,-1.2957,-1.2941,-1.3062,-1.3026,-1.3031,-1.3035,-1.3074,-1.3086,-1.3096,-1.2957,-1.2957,-1.2956,0,0,-1.2635,-1.2655,-1.2706,-1.2728,-1.2761,-1.277,-1.2782,-1.2813,-1.2822,-1.2882,-1.2871,-1.2908,-1.2978,-1.3002,-1.3024,-1.311,-1.3101,-1.3123,-1.3167,-1.3206,-1.3216,-1.3225,-1.3257,-1.3268,-1.313,-1.313,-1.313,0,-1.267,-1.2733,-1.2734,-1.2782,-1.2805,-1.2791,-1.2844,-1.2865,-1.2909,-1.2926,-1.2908,-1.2995,-1.3016,-1.309,-1.3111,-1.3128,-1.3143,-1.312,-1.3214,-1.3223,-1.3231,-1.3262,-1.3274,-1.3133,-1.3132,-1.3132,-1.3132,0,-1.2774,-1.2818,-1.2856,-1.2898,-1.2926,-1.2976,-1.2985,-1.3013,-1.301,-1.3021,-1.3082,-1.3106,-1.315,-1.3167,-1.3166,-1.3241,-1.323,-1.3213,-1.318,-1.3246,-1.3275,-1.3286,-1.3136,-1.3135,-1.3134,-1.3134,0,0,-1.2876,-1.2917,-1.2931,-1.2951,-1.2985,-1.302,-1.3068,-1.311,-1.3135,-1.3165,-1.3207,-1.3265,-1.3249,-1.3274,-1.3274,-1.3309,-1.3377,-1.3287,-1.3288,-1.3305,-1.3463,-1.3477,-1.3491,-1.337,-1.3372,-1.3374,-1.3461,0,-1.2959,-1.3045,-1.3047,-1.3126,-1.3167,-1.3153,-1.3196,-1.3222,-1.3233,-1.327,-1.3282,-1.3324,-1.3299,-1.3314,-1.3347,-1.3362,-1.3409,-1.3355,-1.3411,-1.3412,-1.3405,-1.3506,-1.3521,-1.3602,-1.3472,-1.3474,-1.3475,0,-1.3067,-1.31,-1.3183,-1.3212,-1.3229,-1.3268,-1.3306,-1.3341,-1.337,-1.3376,-1.3403,-1.3398,-1.3448,-1.3413,-1.3483,-1.3446,-1.3468,-1.3479,-1.3482,-1.3489,-1.3449,-1.3517,-1.3627,-1.364,-1.3493,-1.3491,-1.349,0,-1.3135,-1.32,-1.3258,-1.3275,-1.3309,-1.3337,-1.3353,-1.338,-1.3405,-1.3438,-1.3455,-1.3494,-1.3516,-1.3546,-1.3553,-1.3526,-1.3623,-1.3588,-1.3631,-1.3631,-1.3654,-1.3652,-1.3771,-1.3665,-1.3665,-1.3664,-1.3664,0,-1.3228,-1.328,-1.3289,-1.3325,-1.3383,-1.3384,-1.3441,-1.3455,-1.3479,-1.3518,-1.3508,-1.3545,-1.355,-1.3588,-1.3593,-1.3651,-1.3661,-1.3668,-1.3669,-1.367,-1.3669,-1.3686,-1.3681,-1.3668,-1.3667,-1.3666,-1.3666,0,-1.3314,-1.3322,-1.3385,-1.3412,-1.342,-1.3462,-1.3485,-1.352,-1.3529,-1.3578,-1.359,-1.3605,-1.3649,-1.3658,-1.371,-1.3714,-1.3783,-1.3778,-1.3774,-1.3774,-1.3816,-1.3813,-1.3952,-1.397,-1.385,-1.3851,-1.3852,0,-1.3374,-1.3414,-1.3445,-1.347,-1.3487,-1.3527,-1.3552,-1.3555,-1.3582,-1.3618,-1.3648,-1.3691,-1.3726,-1.3798,-1.3814,-1.3854,-1.385,-1.3896,-1.3857,-1.3856,-1.3853,-1.3852,-1.3856,-1.3904,-1.3906,-1.3907,-1.3908,0,-1.348,-1.3482,-1.3519,-1.3557,-1.3587,-1.3617,-1.3646,-1.3667,-1.3673,-1.3704,-1.3749,-1.3776,-1.3829,-1.3873,-1.3912,-1.3929,-1.392,-1.3919,-1.3932,-1.3934,-1.3931,-1.3935,-1.3796,-1.3917,-1.3916,-1.3915,-1.3915,-1.3914,-1.3556,-1.3591,-1.3618,-1.3659,-1.3681,-1.3708,-1.3742,-1.3755,-1.3792,-1.3835,-1.3834,-1.3884,-1.3912,-1.3964,-1.3983,-1.4023,-1.4008,-1.4026,-1.4031,-1.4035,-1.404,-1.3923,-1.403,-1.4029,-1.4029,-1.4029,-1.4029,0,-1.3663,-1.368,-1.3717,-1.3757,-1.379,-1.3777,-1.3808,-1.3836,-1.3879,-1.3906,-1.394,-1.3992,-1.4034,-1.4052,-1.4094,-1.4121,-1.4118,-1.4132,-1.4131,-1.4136,-1.405,-1.4036,-1.4134,-1.4134,-1.4134,-1.4134,-1.4134,-1.4134,-1.3723,-1.3781,-1.3786,-1.3855,-1.3871,-1.3919,-1.3938,-1.3963,-1.3984,-1.4042,-1.4076,-1.4088,-1.4111,-1.4154,-1.4192,-1.4196,-1.4213,-1.4229,-1.4232,-1.4152,-1.4141,-1.4131,-1.4118,-1.4232,-1.4232,-1.4315,-1.4315,-1.4316]}]]